Location: Tarrant
(32.8168°N, 97.0772°W)
Time: 10:09:56
(UTC+00:00)

Daily predictions for brighter satellites

Satellite Brightness Start Highest point End
(mag) Time Altitude Azimuth Time Altitude Azimuth Time Altitude Azimuth
SL-16 R/B 3.0 12:00:35 10° NW 12:05:27 30° WSW 12:10:19 10° SSW
DMSP B5D2-2 4.1 12:01:19 10° S 12:06:32 66° WSW 12:11:47 10° NNW
Cosmos 1703 Rocket 3.9 12:02:12 10° S 12:06:32 74° E 12:10:52 10° N
Cosmos 1809 Rocket 4.5 12:00:35 10° N 12:06:45 81° W 12:12:54 10° S
COSMOS 2455 2.9 12:02:04 10° NNW 12:08:07 83° WSW 12:14:06 10° SSE
